TimeEST,TemperatureF,Dew PointF,Humidity,Sea Level PressureIn,VisibilityMPH,Wind Direction,Wind SpeedMPH,Gust SpeedMPH,PrecipitationIn,Events,Conditions,WindDirDegrees,DateUTC
12:53 AM,33.1,19.9,59,29.90,10.0,WSW,6.9,-,N/A,,Clear,250,2012-12-24 05:53:00
1:53 AM,28.0,19.0,69,29.92,10.0,WSW,3.5,-,N/A,,Clear,240,2012-12-24 06:53:00
2:53 AM,24.1,19.0,81,29.93,10.0,Calm,Calm,-,N/A,,Clear,0,2012-12-24 07:53:00
3:53 AM,25.0,21.0,85,29.94,10.0,Calm,Calm,-,N/A,,Clear,0,2012-12-24 08:53:00
4:53 AM,23.0,19.0,85,29.95,10.0,Calm,Calm,-,N/A,,Clear,0,2012-12-24 09:53:00
5:53 AM,23.0,19.9,88,29.98,10.0,Calm,Calm,-,N/A,,Clear,0,2012-12-24 10:53:00
6:53 AM,23.0,19.9,88,30.01,10.0,Calm,Calm,-,N/A,,Clear,0,2012-12-24 11:53:00
7:53 AM,26.1,21.9,84,30.03,10.0,WNW,3.5,-,N/A,,Clear,300,2012-12-24 12:53:00
8:53 AM,36.0,21.9,57,30.06,10.0,Variable,6.9,-,N/A,,Clear,0,2012-12-24 13:53:00
9:53 AM,37.0,21.0,52,30.07,10.0,West,9.2,-,N/A,,Clear,280,2012-12-24 14:53:00
10:53 AM,37.9,19.9,48,30.06,10.0,WNW,9.2,-,N/A,,Clear,290,2012-12-24 15:53:00
11:53 AM,39.9,21.0,47,30.04,10.0,West,4.6,-,N/A,,Clear,260,2012-12-24 16:53:00
12:53 PM,39.9,19.9,45,30.03,10.0,SW,4.6,-,N/A,,Clear,230,2012-12-24 17:53:00
1:53 PM,39.9,21.0,47,30.05,10.0,SW,5.8,-,N/A,,Clear,220,2012-12-24 18:53:00
2:53 PM,37.9,19.9,48,30.04,10.0,West,3.5,-,N/A,,Clear,280,2012-12-24 19:53:00
3:53 PM,36.0,21.0,55,30.05,10.0,WSW,3.5,-,N/A,,Clear,240,2012-12-24 20:53:00
4:53 PM,30.9,21.0,67,30.05,10.0,Calm,Calm,-,N/A,,Clear,0,2012-12-24 21:53:00
5:53 PM,28.0,21.0,75,30.04,10.0,Calm,Calm,-,N/A,,Clear,0,2012-12-24 22:53:00
6:53 PM,28.0,23.0,81,30.07,10.0,Calm,Calm,-,N/A,,Clear,0,2012-12-24 23:53:00
7:53 PM,28.0,23.0,81,30.06,10.0,Calm,Calm,-,N/A,,Clear,0,2012-12-25 00:53:00
8:53 PM,28.9,25.0,85,30.04,10.0,Calm,Calm,-,N/A,,Clear,0,2012-12-25 01:53:00
9:53 PM,30.0,27.0,88,30.04,10.0,Calm,Calm,-,N/A,,Overcast,0,2012-12-25 02:53:00
10:53 PM,30.9,27.0,85,30.03,10.0,Calm,Calm,-,N/A,,Overcast,0,2012-12-25 03:53:00
11:53 PM,30.9,28.0,89,30.00,4.0,Calm,Calm,-,0.00,Snow,Light Snow,0,2012-12-25 04:53:00